Location: Newark
(33.6333°S, 78.8500°W)
Time: 18:26:41
(UTC+00:00)

Courier 1B - Pass Details

Date: 26 September 2019
Orbit: 962 x 1209 km, 28.3° (Epoch: 23 October)

Event Time Altitude Azimuth Distance (km) Brightness Sun altitude
Rises 02:26:39 0° 271° (W) 3,960 11.3 -38.8°
Reaches altitude 10° 02:30:05 10° 284° (WNW) 2,953 10.4 -39.4°
Enters shadow 02:32:35 18° 301° (WNW) 2,372 9.6 -39.8°
Maximum altitude 02:35:34 24° 334° (NNW) 2,052 - -40.3°
Drops below altitude 10° 02:40:49 10° 24° (NNE) 2,802 - -41.2°
Sets 02:44:00 0° 38° (NE) 3,712 - -41.7°
